Location: ??? ???
(33.4974°N, 35.4618°E)
Time: 01:38:37
(UTC+00:00)

Cosmos 1980 Rocket - Pass Details

Date: 29 October 2020
Orbit: 831 x 848 km, 71.0° (Epoch: 25 November)

Event Time Altitude Azimuth Distance (km) Brightness Sun altitude
Rises 17:28:56 0° 235° (SW) 3,380 6.0 -33.9°
Reaches altitude 10° 17:31:55 10° 250° (WSW) 2,446 5.3 -34.5°
Maximum altitude 17:36:13 22° 300° (WNW) 1,733 4.3 -35.4°
Enters shadow 17:39:31 14° 343° (NNW) 2,176 4.5 -36.1°
